BEIDOU-3 M1 (C19)

Last updated on Wed Aug 12 2026 00:03:29 GMT+0000 (Coordinated Universal Time)

1 43001U 17069A 26222.90254791 -.00000016 00000+0 00000+0 0 9998 2 43001 56.7414 61.2838 0008224 328.3440 31.6792 1.86230719 59622
UTC large
Height (km)
Speed (km/s)
/
Latitude / Longitude
Inclination (degrees)
Orbital Period (minutes)
Azimuth
Elevation
Range (km)
Doppler Factor

Next 0 passes for location: London (51.5072 / 0.1276)

No passes found over London.
BEIDOU-3 M1 (C19)